Orbital Elements at Epoch 2459000.5 (2020-May-31.0) TDB
Reference: JPL 8 (heliocentric ecliptic J2000)
Element | Value | Uncertainty (1-sigma) | Units |
e | .02717759411559433 | 6.3924e-08 | |
a | 2.974619470805477 | 2.4594e-08 | au |
q | 2.893776470179581 | 1.8019e-07 | au |
i | 11.30428388929654 | 6.1396e-06 | deg |
node | 106.8487882174935 | 4.3985e-05 | deg |
peri | 126.6759790387693 | 0.00017733 | deg |
M | 91.84949606200911 | 0.00017274 | deg |
tp | 2458522.398805782353 (2019-Feb-07.89880578) | 0.00089948 | TDB |
period | 1873.896290102171 5.13 | 2.324e-05 6.363e-08 | d yr |
n | .1921130864613493 | 2.3826e-09 | deg/d |
Q | 3.055462471431372 | 2.5263e-08 | au |
|
| | Orbit Determination Parameters
Additional Information
|